User: anonymous   Login
Location: Vancouver
(49.2500°N, 123.1330°W)
Time: 15:45:26
(UTC-08:00)
Language:

ERS-2 - Orbit

View from above orbital plane
View from above orbital plane
View from above satellite
View from above satellite

Ground track
Ground track

The orbit data is extracted from the following two-line orbital elements,

1 23560U 95021A   16044.13211327  .00008631  00000-0  42804-3 0  9997
2 23560  98.5087 327.2660 0004333 146.6113 213.5391 15.18018150100966
Epoch (UTC): 13 February 2016 03:10:14
Eccentricity: 0.0004333
inclination: 98.5087°
perigee height: 509 km
apogee height: 515 km
right ascension of ascending node: 327.2660°
argument of perigee: 146.6113°
revolutions per day: 15.18018150
mean anomaly at epoch: 213.5391°
orbit number at epoch: 10096

The dashed part of the orbit path shows where the satellite is in the earth's shadow,  

DLR